Weather History for Joplin, MO

Change the Weather History Date:

Monday, July 22, 2013

  Actual Average Record
Temperature  
Mean Temperature 78 °F 81 °F  
Max Temperature 88 °F 91 °F 108 °F (1954)
Min Temperature 67 °F 70 °F 51 °F (1970)
Degree Days  
Heating Degree Days 0 0  
Month to date heating degree days 0 0  
Since 1 June heating degree days 12 5  
Since 1 July heating degree days 0 0  
Cooling Degree Days 13 16  
Month to date cooling degree days 316 331  
Year to date cooling degree days 783 829  
Since 1 June cooling degree days 639 649  
Growing Degree Days 26 (Base 50)    
Moisture  
Dew Point 67 °F    
Average Humidity 67    
Maximum Humidity 79    
Minimum Humidity 55    
Precipitation  
Precipitation 0.22 in 0.11 in 1.50 in (2000)
Month to date precipitation 0.11 2.87  
Year to date precipitation 27.89 26.68  
Sea Level Pressure  
Sea Level Pressure 29.86 in    
Wind  
Wind Speed 12 mph (SSE)    
Max Wind Speed 23 mph    
Max Gust Speed 30 mph    
Visibility 9 miles    
Events Rain , Thunderstorm    
T = Trace of Precipitation, MM = Missing Value Source: NWS Daily Summary

Daily Weather History Graph

Daily Weather History Graph

Search for Another Location

Airport:

Trip Planner

Search our weather history database for the weather conditions in past years. The results will help you decide how hot, cold, wet, or windy it might be!

Date:

Astronomy

Jul. 22, 2013 Rise Set
Actual Time 6:15 AM CDT 8:33 PM CDT
Civil Twilight 5:45 AM CDT 9:02 PM CDT
Nautical Twilight 5:09 AM CDT 9:39 PM CDT
Astronomical Twilight 4:29 AM CDT 10:18 PM CDT
Moon 8:22 PM CDT (7/22) 6:10 AM CDT (7/22)
Length of Visible Light 15h 17m
Length of Day
14h 18m
Full, 100% of the Moon is Illuminated
Jul 22
Full
Jul 22
Full
Jul 29
Last Quarter
Aug 6
New
Aug 14
First Quarter

Hourly Weather History & Observations

Time (CDT) Temp. Heat Index Dew Point Humidity Pressure Visibility Wind Dir Wind Speed Gust Speed Precip Events Conditions
12:40 AM 75.2 °F - 71.6 °F 89% 29.89 in 5.0 mi SE 4.6 mph - 0.03 in Rain , Thunderstorm Rain
12:53 AM 75.0 °F - 73.0 °F 94% 29.86 in 4.0 mi Calm Calm - 0.09 in Rain , Thunderstorm Rain
1:53 AM 73.9 °F - 73.0 °F 97% 29.84 in 8.0 mi SE 5.8 mph - 0.03 in Thunderstorm Thunderstorm
2:15 AM 75.2 °F - 73.4 °F 94% 29.89 in 7.0 mi NNE 9.2 mph 20.7 mph N/A Thunderstorm Thunderstorm
2:53 AM 73.0 °F - 66.9 °F 81% 29.83 in 10.0 mi East 9.2 mph - N/A Thunderstorm Overcast
3:27 AM 71.6 °F - 66.2 °F 83% 29.85 in 10.0 mi ESE 9.2 mph - N/A   Mostly Cloudy
3:53 AM 72.0 °F - 64.0 °F 76% 29.83 in 10.0 mi ESE 9.2 mph - N/A   Mostly Cloudy
4:53 AM 72.0 °F - 64.0 °F 76% 29.85 in 10.0 mi East 12.7 mph - N/A Thunderstorm Overcast
5:22 AM 71.6 °F - 62.6 °F 73% 29.89 in 10.0 mi SE 11.5 mph - 0.00 in   Mostly Cloudy
5:53 AM 66.9 °F - 63.0 °F 87% 29.86 in 8.0 mi SE 11.5 mph 20.7 mph 0.05 in Rain , Thunderstorm Thunderstorms and Rain
6:14 AM 66.2 °F - 62.6 °F 88% 29.90 in 10.0 mi ESE 8.1 mph 19.6 mph 0.00 in   Overcast
6:53 AM 68.0 °F - 62.1 °F 81% 29.87 in 10.0 mi SE 11.5 mph - 0.00 in   Scattered Clouds
7:53 AM 70.0 °F - 62.1 °F 76% 29.87 in 10.0 mi SSE 16.1 mph 21.9 mph N/A   Mostly Cloudy
8:53 AM 75.9 °F - 63.0 °F 64% 29.88 in 10.0 mi South 12.7 mph 21.9 mph N/A   Scattered Clouds
9:53 AM 77.0 °F - 66.0 °F 69% 29.88 in 10.0 mi South 15.0 mph 20.7 mph N/A   Partly Cloudy
10:53 AM 78.1 °F - 66.9 °F 68% 29.87 in 10.0 mi South 15.0 mph 21.9 mph N/A   Scattered Clouds
12:53 PM 84.9 °F 89.4 °F 70.0 °F 61% 29.89 in 10.0 mi WSW 16.1 mph 20.7 mph N/A   Scattered Clouds
1:53 PM 78.1 °F - 69.1 °F 74% 29.89 in 10.0 mi WSW 13.8 mph 25.3 mph N/A   Scattered Clouds
2:19 PM 75.2 °F - 69.8 °F 83% 29.93 in 10.0 mi West 16.1 mph 29.9 mph 0.00 in Rain , Thunderstorm Rain
2:53 PM 72.0 °F - 66.9 °F 84% 29.91 in 10.0 mi SW 18.4 mph 27.6 mph 0.01 in Rain , Thunderstorm Rain
3:36 PM 71.6 °F - 66.2 °F 83% 29.89 in 10.0 mi SSE 8.1 mph - 0.03 in Rain Light Rain
3:53 PM 73.0 °F - 64.9 °F 76% 29.84 in 10.0 mi SSE 8.1 mph - 0.04 in Rain Light Rain
4:53 PM 84.0 °F 86.5 °F 66.9 °F 56% 29.83 in 10.0 mi SW 10.4 mph - 0.00 in   Clear
5:53 PM 84.9 °F 87.6 °F 66.9 °F 55% 29.82 in 10.0 mi SSW 8.1 mph - N/A   Clear
6:53 PM 86.0 °F 90.1 °F 69.1 °F 57% 29.82 in 10.0 mi SW 12.7 mph - N/A   Clear
7:53 PM 82.0 °F 85.9 °F 70.0 °F 67% 29.81 in 10.0 mi SSW 10.4 mph - N/A   Clear
8:53 PM 79.0 °F - 71.1 °F 77% 29.79 in 10.0 mi SSE 6.9 mph - N/A   Clear
9:53 PM 80.1 °F 83.8 °F 72.0 °F 76% 29.80 in 10.0 mi South 10.4 mph - N/A   Clear
10:53 PM 80.1 °F 83.2 °F 70.0 °F 71% 29.83 in 10.0 mi South 10.4 mph - N/A   Clear
11:53 PM 79.0 °F - 68.0 °F 69% 29.85 in 10.0 mi South 9.2 mph - N/A   Clear